Regional Weather Roundup
Issued by NWS

Home | Current Version | Previous Version | Graphics & Text | Print | Product List | Glossary On
Versions: 1 2 3 4 5 6 7 8 9 10 11 12 13 14 15 16 17 18 19 20 21 22 23 24 25 26 27 28 29 30 31 32 33 34 35 36 37 38 39 40 41 42 43 44 45 46 47 48 49 50
000
ASUS43 KOAX 210602
RWRNE

WEATHER ROUNDUP FOR NEBRASKA
NATIONAL WEATHER SERVICE OMAHA NE
1200 AM CST TUE NOV 21 2017

NOTES: SATELLITE DATA IS BEING USED TO AUGMENT CLOUD COVER ABOVE
       12000 FEET.
       "FAIR" INDICATES FEW OR NO CLOUDS BELOW 12,000 FEET WITH NO
       SIGNIFICANT WEATHER AND/OR OBSTRUCTIONS TO VISIBILITY.


NEZ001>004-019>022-054>056-210700-
NEBRASKA PANHANDLE

CITY           SKY/WX    TMP DP  RH WIND       PRES   REMARKS
SCOTTSBLUFF    CLEAR     53  21  28 W15       29.80R
6HR MIN TEMP:  42; 6HR MAX TEMP:  57;

ALLIANCE       CLOUDY    51  27  39 NW10      29.78R
6HR MIN TEMP:  33; 6HR MAX TEMP:  53;

CHADRON        CLOUDY    34  27  75 CALM      29.80R
6HR MIN TEMP:  30; 6HR MAX TEMP:  49;

GORDON         FAIR      34  25  69 CALM      29.78R
6HR MIN TEMP:  30; 6HR MAX TEMP:  48;

KIMBALL        CLOUDY    50  13  22 W20       29.82F
SIDNEY         CLOUDY    53  14  21 W10       29.82R
6HR MIN TEMP:  47; 6HR MAX TEMP:  55;

$$

NEZ057>060-069>072-079>082-210700-
SOUTHWEST NEBRASKA

CITY           SKY/WX    TMP DP  RH WIND       PRES   REMARKS
NORTH PLATTE   PTCLDY    33  25  72 CALM      29.79S
6HR MIN TEMP:  32; 6HR MAX TEMP:  51;

IMPERIAL       CLOUDY    48  22  35 N8        29.80S
6HR MIN TEMP:  48; 6HR MAX TEMP:  59;

LEXINGTON      CLOUDY    40  28  60 W10       29.79R WCI  34
MCCOOK         CLOUDY    48  27  44 N10       29.78F
6HR MIN TEMP:  47; 6HR MAX TEMP:  58;

OGALLALA       CLOUDY    52  20  29 NW12      29.79R
$$

NEZ005>010-023>029-035>040-094-210700-
NORTH CENTRAL NEBRASKA

CITY           SKY/WX    TMP DP  RH WIND       PRES   REMARKS
VALENTINE      CLOUDY    35  24  64 W7        29.80R WCI  29
6HR MIN TEMP:  30; 6HR MAX TEMP:  49;

AINSWORTH      CLOUDY    37  24  60 W7        29.78R WCI  31
BROKEN BOW     CLEAR     32  22  66 CALM      29.77R
6HR MIN TEMP:  31; 6HR MAX TEMP:  54;

O`NEILL        PTCLDY    40  24  52 NW8       29.76R WCI  34
ORD            CLEAR     33  24  69 NW10      29.75R WCI  25
6HR MIN TEMP:  31; 6HR MAX TEMP:  52;

THEDFORD       CLOUDY    33  24  70 W5        29.79F WCI  28
$$

NEZ041-046>049-061>064-073>077-083>087-210700-
SOUTH CENTRAL NEBRASKA

CITY           SKY/WX    TMP DP  RH WIND       PRES   REMARKS
GRAND ISLAND   CLEAR     35  25  66 W8        29.75R WCI  29
6HR MIN TEMP:  34; 6HR MAX TEMP:  50;

AURORA         CLEAR     35  23  63 NW6       29.74R WCI  29
HASTINGS       CLOUDY    38  23  55 CALM      29.75R
6HR MIN TEMP:  36; 6HR MAX TEMP:  51;

HEBRON         CLOUDY    38  29  69 CALM      29.73R
HOLDREGE       CLOUDY    47  27  44 NW7       29.77R
KEARNEY        PTCLDY    42  24  49 NW10      29.77R
$$

NEZ011>018-030>034-042>045-210700-
NORTHEAST NEBRASKA

CITY           SKY/WX    TMP DP  RH WIND       PRES   REMARKS
NORFOLK        CLOUDY    34  25  69 CALM      29.72R
6HR MIN TEMP:  34; 6HR MAX TEMP:  51;

ALBION         CLEAR     31  23  72 NW7       29.74R WCI  25
BLAIR          CLOUDY    45  29  54 NW7       29.69S
COLUMBUS       CLOUDY    31  24  75 CALM      29.73R
FREMONT        CLOUDY    33  28  81 W6        29.71R WCI  28
TEKAMAH        PTCLDY    40  25  55 NW7       29.70R
6HR MIN TEMP:  33; 6HR MAX TEMP:  46;

WAYNE          CLOUDY    40  23  50 N5        29.72R
$$

NEZ050>053-065>068-078-088>093-210700-
SOUTHEAST NEBRASKA

CITY           SKY/WX    TMP DP  RH WIND       PRES   REMARKS
LINCOLN        CLOUDY    35  26  69 CALM      29.72R
6HR MIN TEMP:  34; 6HR MAX TEMP:  51;

OMAHA EPPLEY   CLOUDY    39  28  64 CALM      29.70R
6HR MIN TEMP:  39; 6HR MAX TEMP:  51;

BEATRICE       CLOUDY    35  27  72 CALM      29.72R
FALLS CITY     CLOUDY    45  28  51 CALM      29.71S
6HR MIN TEMP:  45; 6HR MAX TEMP:  57;

NEBRASKA CITY  CLOUDY    43  29  57 W10       29.70S
PLATTSMOUTH    CLOUDY    42  29  61 CALM      29.70R
$$

NEZ044-045-051>053-067-210700-
OMAHA AREA

CITY           SKY/WX    TMP DP  RH WIND       PRES   REMARKS
OMAHA EPPLEY   CLOUDY    39  28  64 CALM      29.70R
6HR MIN TEMP:  39; 6HR MAX TEMP:  51;

BLAIR          CLOUDY    45  29  54 NW7       29.69S
FREMONT        CLOUDY    33  28  81 W6        29.71R WCI  28
MILLARD        CLOUDY    39  30  70 CALM      29.70R
OFFUTT AFB     CLOUDY    32  27  80 CALM      29.69R
PLATTSMOUTH    CLOUDY    42  29  61 CALM      29.70R
WAHOO          FAIR      36  27  68 NW5       29.70R WCI  32
$$



USA.gov is the U.S. government's official web portal to all federal, state and local government web resources and services.